Location: Ar Ranvel
(48.3000°N, 4.8833°W)
Time: 21:19:50
(UTC+00:00)

Meteor 2-10 Rocket - Pass Details

Date: 30 October 2021
Orbit: 733 x 885 km, 81.2° (Epoch: 30 November)

Event Time Altitude Azimuth Distance (km) Brightness Sun altitude
Rises 05:19:42 0° 345° (NNW) 3,186 6.5 -17.5°
Reaches altitude 10° 05:22:03 10° 342° (NNW) 2,251 5.7 -17.1°
Maximum altitude 05:27:00 61° 263° (W) 837 3.4 -16.3°
Drops below altitude 10° 05:31:55 10° 184° (S) 2,243 5.9 -15.5°
Sets 05:34:16 0° 181° (S) 3,172 6.7 -15.1°
